FW4808 Weather Reports


time (UTC)temp
C
wind
direction
speed
KPH
gust
KPH
rain 1hr
cm
rain 24hr
cm
rain mn
cm
humidity
%
barometer
mb
20260507111217 10 0 0.0 0.0 0.00 0.36 0.03 64 1012.2
20260507110503 10 271 0.0 6.4 0.00 0.36 0.03 66 1012.0
20260507110004 10 271 0.0 6.4 0.00 0.36 0.03 67 1012.0
20260507105504 10 284 0.0 4.8 0.00 0.36 0.03 68 1011.8
20260507105003 10 284 0.0 4.8 0.00 0.36 0.03 70 1011.8
20260507104718 10 0 0.0 0.0 0.00 0.36 0.03 73 1011.8
20260507104003 10 0 0.0 0.0 0.00 0.36 0.03 75 1011.6
20260507103503 10 0 0.0 0.0 0.00 0.36 0.03 74 1011.6
20260507103004 10 0 0.0 0.0 0.00 0.36 0.03 75 1011.7
20260507102503 10 0 0.0 0.0 0.00 0.36 0.03 74 1011.8
20260507102003 10 0 0.0 0.0 0.00 0.36 0.03 73 1011.6
20260507101718 10 0 0.0 0.0 0.00 0.36 0.03 74 1011.4
20260507101003 10 0 0.0 0.0 0.00 0.36 0.03 74 1011.2
20260507100503 10 0 0.0 0.0 0.00 0.36 0.03 75 1011.2
20260507100004 10 0 0.0 0.0 0.00 0.36 0.03 73 1011.2
20260507095717 10 0 0.0 0.0 0.00 0.36 0.03 73 1011.1
20260507095004 10 319 0.0 4.8 0.00 0.36 0.03 73 1011.3
20260507094503 10 287 0.0 9.7 0.00 0.36 0.03 75 1011.1
20260507094003 10 292 1.6 9.7 0.00 0.36 0.03 77 1011.2
20260507093504 10 318 0.0 6.4 0.00 0.36 0.03 77 1011.3
20260507093003 10 290 1.6 11.3 0.00 0.36 0.03 79 1011.2
20260507092503 10 277 1.6 11.3 0.00 0.36 0.03 81 1011.1
20260507092003 10 283 0.0 4.8 0.00 0.36 0.03 84 1011.2
20260507091503 11 281 0.0 8.0 0.00 0.36 0.03 85 1011.2
20260507091003 11 286 0.0 12.9 0.00 0.36 0.03 86 1011.2
20260507090503 11 289 1.6 12.9 0.00 0.36 0.03 88 1011.1
20260507090004 11 289 1.6 11.3 0.00 0.36 0.03 88 1011.1
20260507085503 11 288 1.6 14.5 0.00 0.36 0.03 89 1010.9
20260507085005 11 288 1.6 14.5 0.00 0.36 0.03 89 1010.9
20260507084717 11 292 1.6 11.3 0.00 0.36 0.03 90 1010.9
20260507084003 11 285 1.6 11.3 0.00 0.36 0.03 91 1010.9
20260507083504 11 291 0.0 11.3 0.00 0.36 0.03 92 1011.0
20260507083004 11 302 0.0 9.7 0.00 0.36 0.03 92 1010.8
20260507082503 11 304 0.0 6.4 0.00 0.36 0.03 92 1010.7
20260507082004 11 293 0.0 8.0 0.00 0.36 0.03 92 1010.6
20260507081506 11 298 0.0 9.7 0.00 0.36 0.03 92 1010.4
20260507081004 11 301 0.0 9.7 0.00 0.36 0.03 93 1010.4
20260507080503 11 301 0.0 8.0 0.00 0.36 0.03 93 1010.4
20260507080004 11 282 0.0 1.6 0.00 0.36 0.03 93 1010.4
20260507075503 11 304 0.0 4.8 0.00 0.36 0.03 93 1010.4
20260507075004 11 285 0.0 6.4 0.00 0.36 0.03 92 1010.4
20260507074503 11 285 1.6 6.4 0.00 0.36 0.03 92 1010.4
20260507074003 11 288 1.6 8.0 0.00 0.36 0.03 92 1010.4
20260507073503 11 286 0.0 8.0 0.00 0.36 0.03 92 1010.3
20260507073003 11 272 0.0 4.8 0.00 0.36 0.03 91 1010.3
20260507072503 11 273 0.0 4.8 0.00 0.36 0.03 91 1010.3
20260507072003 11 270 0.0 3.2 0.00 0.36 0.03 90 1010.5
20260507071504 11 331 0.0 6.4 0.00 0.36 0.03 89 1010.7
20260507071004 11 322 0.0 12.9 0.00 0.36 0.03 89 1010.7
20260507070503 11 298 1.6 12.9 0.00 0.36 0.03 89 1010.8
20260507070217 11 292 1.6 12.9 0.00 0.36 0.03 88 1010.9
20260507065503 11 302 3.2 12.9 0.03 0.36 0.03 88 1010.9
20260507065004 11 313 1.6 12.9 0.03 0.36 0.03 88 1010.9
20260507064503 11 5 0.0 4.8 0.03 0.36 0.03 88 1010.9
20260507064003 11 0 0.0 0.0 0.03 0.36 0.03 88 1010.8
20260507063504 11 18 0.0 3.2 0.03 0.36 0.03 88 1010.9
20260507063003 11 18 0.0 3.2 0.03 0.36 0.03 88 1010.9
20260507062503 11 6 0.0 1.6 0.03 0.36 0.03 87 1010.8
20260507062003 11 9 0.0 1.6 0.03 0.36 0.03 87 1010.8
20260507061504 11 355 0.0 4.8 0.03 0.36 0.03 86 1010.8
20260507061004 11 332 0.0 8.0 0.03 0.36 0.03 86 1010.9
20260507060718 11 306 0.0 8.0 0.03 0.36 0.03 86 1010.9
20260507060004 12 335 0.0 8.0 0.00 0.33 0.00 86 1010.9
20260507055504 12 344 1.6 9.7 0.00 0.33 0.00 86 1010.8
20260507055003 12 337 1.6 9.7 0.00 0.33 0.00 86 1010.7
20260507054718 12 326 1.6 9.7 0.00 0.33 0.00 87 1010.7
20260507054003 12 289 1.6 14.5 0.00 0.33 0.00 89 1010.7
20260507053504 12 328 0.0 8.0 0.00 0.33 0.00 91 1010.7
20260507053004 12 310 0.0 8.0 0.00 0.33 0.00 92 1010.8
20260507052503 12 293 0.0 8.0 0.00 0.33 0.00 92 1010.9
20260507052003 12 0 0.0 0.0 0.00 0.33 0.00 92 1010.7
20260507051503 12 0 0.0 0.0 0.00 0.33 0.00 92 1010.7
20260507051217 12 0 0.0 0.0 0.00 0.33 0.00 92 1010.7
20260507050503 12 294 1.6 8.0 0.00 0.33 0.00 92 1010.8
20260507050003 12 287 1.6 9.7 0.00 0.33 0.00 92 1010.7
20260507045503 12 288 3.2 14.5 0.00 0.33 0.00 92 1010.7
20260507045218 12 286 3.2 14.5 0.00 0.33 0.00 92 1010.5
20260507044503 12 285 1.6 12.9 0.00 0.33 0.00 92 1010.7
20260507044003 12 289 1.6 12.9 0.00 0.33 0.00 92 1010.9
20260507043503 12 292 1.6 11.3 0.00 0.33 0.00 92 1010.7
20260507043003 12 290 1.6 11.3 0.00 0.33 0.00 92 1010.9
20260507042503 12 287 0.0 11.3 0.00 0.33 0.00 91 1010.7
20260507042004 13 292 0.0 11.3 0.03 0.33 0.00 91 1010.5
20260507041717 13 290 0.0 11.3 0.03 0.33 0.00 91 1010.4
20260507041003 13 289 0.0 14.5 0.03 0.33 0.00 89 1010.5
20260507040504 13 308 1.6 14.5 0.05 0.33 0.00 89 1010.6
20260507040004 13 302 1.6 14.5 0.05 0.33 0.00 89 1010.4
20260507035503 13 299 3.2 12.9 0.05 0.33 0.33 89 1010.5
20260507035003 13 299 1.6 12.9 0.05 0.33 0.33 89 1010.2
20260507034503 13 309 1.6 17.7 0.05 0.33 0.33 89 1010.2
20260507034004 13 304 3.2 17.7 0.05 0.33 0.33 89 1010.2
20260507033717 13 301 3.2 17.7 0.05 0.33 0.33 90 1010.3
20260507033003 13 320 3.2 16.1 0.05 0.33 0.33 90 1010.1
20260507032504 13 294 3.2 16.1 0.05 0.33 0.33 90 1009.8
20260507032004 13 289 1.6 16.1 0.03 0.30 0.30 90 1010.2
20260507031503 13 288 1.6 9.7 0.03 0.30 0.30 90 1010.2
20260507031003 14 283 1.6 12.9 0.03 0.30 0.30 90 1010.3
20260507030503 14 289 1.6 12.9 0.00 0.28 0.28 89 1010.3
20260507030004 14 293 1.6 12.9 0.00 0.28 0.28 89 1010.1
20260507025504 14 303 1.6 11.3 0.00 0.28 0.28 89 1009.9
20260507025003 14 322 1.6 14.5 0.00 0.28 0.28 88 1009.9
20260507024503 15 296 3.2 14.5 0.00 0.28 0.28 86 1009.8
20260507024004 15 292 3.2 16.1 0.00 0.28 0.28 85 1010.1
20260507023503 15 294 3.2 16.1 0.00 0.28 0.28 86 1010.2
20260507023218 15 300 3.2 16.1 0.00 0.28 0.28 86 1010.0
20260507022503 15 310 4.8 14.5 0.00 0.28 0.28 87 1009.8
20260507022218 15 310 3.2 14.5 0.00 0.28 0.28 87 1009.7
20260507021503 15 297 1.6 8.0 0.00 0.28 0.28 90 1009.6
20260507021003 15 294 1.6 11.3 0.00 0.28 0.28 90 1009.7
20260507020504 15 292 1.6 11.3 0.00 0.28 0.28 90 1009.6
20260507020003 15 293 1.6 9.7 0.00 0.28 0.28 90 1009.6
20260507015504 15 292 1.6 9.7 0.00 0.28 0.28 90 1009.8
20260507015004 15 285 1.6 8.0 0.00 0.28 0.28 89 1009.7
20260507014503 15 286 1.6 8.0 0.00 0.28 0.28 89 1009.7
20260507014003 15 272 1.6 12.9 0.00 0.28 0.28 88 1009.5
20260507013503 15 273 4.8 16.1 0.00 0.28 0.28 88 1009.4
20260507013217 16 275 4.8 16.1 0.00 0.28 0.28 87 1009.8
20260507012503 16 284 4.8 16.1 0.00 0.28 0.28 87 1009.8
20260507012004 16 281 6.4 14.5 0.00 0.28 0.28 86 1009.8
20260507011503 16 280 4.8 14.5 0.00 0.28 0.28 86 1010.0
20260507010503 16 288 4.8 16.1 0.00 0.28 0.28 86 1009.7
20260507010004 16 287 6.4 16.1 0.00 0.28 0.28 87 1010.1
20260507005503 16 285 4.8 16.1 0.00 0.28 0.28 87 1010.0
20260507005003 17 285 3.2 14.5 0.00 0.28 0.28 87 1009.9
20260507004503 17 289 3.2 16.1 0.00 0.28 0.28 86 1009.7
20260507004217 17 290 3.2 17.7 0.00 0.28 0.28 86 1009.7
20260507003503 17 287 6.4 19.3 0.00 0.28 0.28 86 1009.6
20260507003004 17 289 6.4 19.3 0.00 0.28 0.28 86 1009.5
20260507002503 17 288 8.0 22.5 0.00 0.28 0.28 87 1009.3
20260507002217 17 283 9.7 22.5 0.00 0.28 0.28 88 1009.3
20260507001504 18 270 4.8 19.3 0.00 0.28 0.28 89 1009.3
20260507001004 18 268 4.8 12.9 0.00 0.28 0.28 89 1009.1
20260507000503 18 268 4.8 12.9 0.00 0.28 0.28 89 1008.8
20260507000219 18 267 3.2 12.9 0.00 0.28 0.28 90 1008.8
20260506235503 18 266 1.6 9.7 0.00 0.28 0.28 91 1008.8
20260506235005 18 266 0.0 6.4 0.00 0.28 0.28 91 1008.4
20260506234503 18 279 0.0 6.4 0.00 0.28 0.28 90 1008.2
20260506234003 18 279 0.0 6.4 0.00 0.28 0.28 90 1008.2
20260506233504 18 269 1.6 9.7 0.00 0.28 0.28 89 1008.3
20260506233003 18 267 1.6 9.7 0.00 0.28 0.28 89 1008.3
20260506232504 19 271 0.0 8.0 0.00 0.28 0.28 88 1008.3
20260506232003 19 283 0.0 8.0 0.00 0.28 0.28 87 1008.2
20260506231504 19 282 0.0 8.0 0.00 0.28 0.28 86 1008.1
20260506231003 19 0 0.0 0.0 0.00 0.28 0.28 85 1008.1
20260506230504 19 0 0.0 0.0 0.00 0.28 0.28 85 1008.0
20260506230003 20 256 0.0 6.4 0.00 0.28 0.28 85 1008.0
20260506225503 20 263 0.0 6.4 0.00 0.28 0.28 84 1008.1
20260506225003 20 267 0.0 6.4 0.00 0.28 0.28 84 1008.3
20260506224717 20 252 0.0 1.6 0.00 0.28 0.28 84 1008.2
20260506224218 20 248 0.0 1.6 0.00 0.28 0.28 83 1008.0
20260506223503 20 0 0.0 0.0 0.00 0.28 0.28 83 1008.1
20260506223004 20 0 0.0 0.0 0.00 0.28 0.28 84 1008.1
20260506222503 20 0 0.0 0.0 0.00 0.28 0.28 84 1008.1
20260506222004 20 0 0.0 0.0 0.00 0.28 0.28 83 1008.1
20260506221717 20 0 0.0 0.0 0.00 0.28 0.28 83 1008.0
20260506221003 20 0 0.0 0.0 0.00 0.28 0.28 84 1008.1
20260506220503 20 0 0.0 0.0 0.00 0.28 0.28 84 1008.0
20260506220003 20 0 0.0 0.0 0.00 0.28 0.28 84 1008.0
20260506215503 20 0 0.0 0.0 0.00 0.28 0.28 84 1008.1
20260506215004 20 0 0.0 0.0 0.00 0.28 0.28 84 1008.2
20260506214503 20 0 0.0 0.0 0.00 0.28 0.28 84 1008.0
20260506214003 20 171 0.0 9.7 0.00 0.28 0.28 84 1008.0
20260506213717 20 171 0.0 9.7 0.00 0.28 0.28 84 1008.0
20260506213218 20 171 0.0 9.7 0.00 0.28 0.28 83 1007.9
20260506212503 20 0 0.0 0.0 0.00 0.28 0.28 84 1007.8
20260506212004 20 0 0.0 0.0 0.00 0.28 0.28 83 1007.6
20260506211717 20 0 0.0 0.0 0.00 0.28 0.28 83 1007.6
20260506211003 20 0 0.0 0.0 0.00 0.28 0.28 83 1007.5
20260506210504 20 0 0.0 0.0 0.00 0.28 0.28 83 1007.4
20260506210003 20 0 0.0 0.0 0.00 0.28 0.28 83 1007.3
20260506205503 20 0 0.0 0.0 0.00 0.28 0.28 83 1007.4
20260506205217 20 0 0.0 0.0 0.00 0.28 0.28 83 1007.5
20260506204503 20 0 0.0 0.0 0.00 0.28 0.28 83 1007.4
20260506204004 20 0 0.0 0.0 0.00 0.28 0.28 82 1007.5
20260506203504 20 269 0.0 6.4 0.00 0.28 0.28 80 1007.4
20260506203217 20 269 0.0 6.4 0.00 0.28 0.28 80 1007.5
20260506202503 20 0 0.0 0.0 0.00 0.28 0.28 79 1007.6
20260506202217 20 270 0.0 4.8 0.00 0.28 0.28 79 1007.6
20260506201504 20 270 0.0 4.8 0.00 0.28 0.28 79 1007.5
20260506201217 20 0 0.0 0.0 0.00 0.28 0.28 79 1007.5
20260506200503 20 0 0.0 0.0 0.00 0.28 0.28 80 1007.5
20260506200217 20 0 0.0 0.0 0.00 0.28 0.28 80 1007.6
20260506195504 20 0 0.0 0.0 0.00 0.28 0.28 80 1007.5
20260506195217 20 0 0.0 0.0 0.00 0.28 0.28 80 1007.5
20260506194504 20 227 0.0 3.2 0.00 0.28 0.28 78 1007.5
20260506194217 20 227 0.0 4.8 0.00 0.28 0.28 78 1007.6
20260506193718 20 219 0.0 4.8 0.00 0.28 0.28 77 1007.6
20260506193003 21 257 0.0 4.8 0.00 0.28 0.28 78 1007.6
20260506192503 21 264 0.0 6.4 0.00 0.28 0.28 77 1007.4
20260506192004 21 263 0.0 6.4 0.00 0.28 0.28 76 1007.6
20260506191503 21 189 0.0 11.3 0.00 0.28 0.28 76 1007.6
20260506191003 21 187 0.0 11.3 0.00 0.28 0.28 76 1007.6
20260506190504 21 0 0.0 0.0 0.00 0.28 0.28 77 1007.6
20260506190003 21 176 0.0 4.8 0.00 0.28 0.28 76 1007.7
20260506185504 21 201 0.0 4.8 0.00 0.28 0.28 77 1007.7
20260506185003 21 201 0.0 3.2 0.00 0.28 0.28 77 1007.6
20260506184503 21 181 0.0 4.8 0.00 0.28 0.28 79 1007.7
20260506184003 20 187 0.0 4.8 0.00 0.28 0.28 80 1007.7
20260506183718 20 186 0.0 4.8 0.00 0.28 0.28 80 1007.6
20260506183004 20 207 0.0 3.2 0.00 0.28 0.28 81 1007.8
20260506182503 20 190 0.0 6.4 0.00 0.28 0.28 81 1007.8
20260506182219 20 199 0.0 11.3 0.00 0.28 0.28 81 1007.8
20260506181718 19 191 0.0 11.3 0.00 0.28 0.28 83 1007.8
20260506181003 19 197 1.6 6.4 0.00 0.28 0.28 85 1007.8
20260506180503 18 184 1.6 16.1 0.00 0.28 0.28 87 1007.9
20260506180004 18 185 1.6 16.1 0.00 0.28 0.28 88 1007.9
20260506175503 18 198 1.6 14.5 0.00 0.28 0.28 89 1008.0
20260506175003 17 206 1.6 14.5 0.00 0.28 0.28 90 1008.0
20260506174503 17 215 0.0 8.0 0.00 0.28 0.28 90 1008.1
20260506174003 17 204 0.0 4.8 0.00 0.28 0.28 91 1008.2
20260506173504 17 191 1.6 12.9 0.00 0.28 0.28 92 1008.1
20260506173003 17 187 1.6 12.9 0.00 0.28 0.28 93 1008.0
20260506172503 17 194 0.0 12.9 0.00 0.28 0.28 94 1008.0
20260506172004 17 207 0.0 11.3 0.00 0.28 0.28 95 1008.0
20260506171503 17 197 0.0 11.3 0.00 0.28 0.28 95 1008.0
20260506171003 16 189 1.6 12.9 0.00 0.28 0.28 96 1008.0
20260506170717 16 189 1.6 12.9 0.00 0.28 0.28 96 1008.1
20260506170003 16 186 0.0 11.3 0.00 0.28 0.28 97 1008.2
20260506165503 16 196 0.0 6.4 0.00 0.28 0.28 97 1008.1
20260506165005 16 195 0.0 6.4 0.00 0.28 0.28 97 1008.2
20260506164717 16 193 0.0 6.4 0.00 0.28 0.28 98 1008.0
20260506164003 16 192 1.6 24.1 0.00 0.28 0.28 98 1008.2
20260506163719 16 189 3.2 24.1 0.00 0.28 0.28 98 1008.2
20260506163218 16 193 3.2 20.9 0.00 0.28 0.28 98 1008.2
20260506162503 16 192 1.6 14.5 0.00 0.28 0.28 99 1008.1
20260506162003 16 191 1.6 14.5 0.00 0.28 0.28 99 1008.0
20260506161503 16 200 0.0 12.9 0.00 0.28 0.28 99 1008.2
20260506161003 16 190 1.6 12.9 0.00 0.28 0.28 100 1008.4
20260506160504 16 192 3.2 19.3 0.00 0.28 0.28 100 1008.4
20260506160003 16 191 3.2 19.3 0.03 0.28 0.28 100 1008.3
20260506155717 16 195 3.2 17.7 0.03 0.28 0.28 100 1008.4
20260506155004 16 198 1.6 19.3 0.03 0.28 0.28 100 1008.4
20260506154503 16 185 3.2 19.3 0.03 0.28 0.28 100 1008.4
20260506154003 16 187 6.4 27.4 0.05 0.28 0.28 100 1008.3
20260506153504 16 188 6.4 27.4 0.05 0.28 0.28 100 1008.0
20260506153003 15 186 3.2 27.4 0.05 0.28 0.28 100 1008.1
20260506152503 15 186 3.2 16.1 0.05 0.28 0.28 100 1008.2
20260506152217 15 188 3.2 16.1 0.05 0.28 0.28 100 1008.4
20260506151503 15 181 3.2 14.5 0.05 0.28 0.28 100 1008.4
20260506151003 15 183 3.2 14.5 0.05 0.28 0.28 100 1008.1
20260506150718 15 189 1.6 11.3 0.05 0.28 0.28 100 1008.3
20260506150003 15 188 3.2 16.1 0.03 0.25 0.25 100 1008.6
20260506145718 15 187 3.2 16.1 0.03 0.25 0.25 100 1008.7
20260506145003 15 176 1.6 12.9 0.05 0.25 0.25 100 1009.0
20260506144504 15 185 1.6 19.3 0.05 0.25 0.25 100 1009.1
20260506144003 15 178 1.6 19.3 0.03 0.23 0.23 100 1009.1
20260506143503 15 180 1.6 14.5 0.05 0.23 0.23 100 1008.8
20260506143004 15 187 1.6 14.5 0.05 0.23 0.23 100 1008.8
20260506142718 15 187 1.6 14.5 0.05 0.23 0.23 100 1008.8
20260506142217 15 176 0.0 9.7 0.08 0.23 0.23 100 1008.7
20260506141503 15 177 1.6 14.5 0.10 0.23 0.23 100 1008.6
20260506141003 15 184 4.8 22.5 0.10 0.23 0.23 100 1008.6
20260506140718 15 184 4.8 22.5 0.10 0.23 0.23 99 1008.6
20260506140004 15 186 4.8 16.1 0.13 0.23 0.23 99 1008.5
20260506135503 15 187 4.8 20.9 0.15 0.23 0.23 99 1008.5
20260506135004 15 184 3.2 20.9 0.13 0.20 0.20 99 1008.5
20260506134503 15 181 3.2 19.3 0.15 0.20 0.20 99 1008.7
20260506134003 15 185 4.8 19.3 0.15 0.20 0.20 98 1008.9
20260506133503 15 185 4.8 16.1 0.15 0.18 0.18 98 1009.1
20260506133004 15 186 3.2 16.1 0.15 0.18 0.18 98 1009.0
20260506132503 15 187 3.2 16.1 0.13 0.15 0.15 98 1008.9
20260506132003 15 184 1.6 16.1 0.13 0.15 0.15 97 1008.9
20260506131503 15 186 0.0 11.3 0.13 0.13 0.13 96 1009.0
20260506131219 15 186 0.0 11.3 0.13 0.13 0.13 96 1009.1
20260506130503 16 184 1.6 14.5 0.13 0.13 0.13 95 1009.1
20260506130004 16 184 1.6 16.1 0.10 0.10 0.10 94 1009.1
20260506125503 16 186 1.6 16.1 0.08 0.08 0.08 94 1009.0
20260506125003 16 189 1.6 14.5 0.08 0.08 0.08 93 1008.8
20260506124717 16 184 1.6 14.5 0.08 0.08 0.08 93 1008.9
20260506124003 16 181 1.6 14.5 0.05 0.05 0.05 91 1008.9
20260506123717 16 182 1.6 12.9 0.05 0.05 0.05 91 1008.9
20260506123004 16 176 0.0 9.7 0.03 0.03 0.03 89 1009.0
20260506122717 16 175 0.0 9.7 0.03 0.03 0.03 89 1009.1
20260506122003 16 192 0.0 6.4 0.03 0.03 0.03 87 1009.1
20260506121503 17 195 0.0 6.4 0.00 0.00 0.00 85 1009.2
20260506121004 17 200 0.0 17.7 0.00 0.00 0.00 83 1009.2
20260506120504 17 210 1.6 17.7 0.00 0.00 0.00 82 1009.4
20260506120004 17 213 1.6 11.3 0.00 0.00 0.00 81 1009.4
20260506115717 17 207 1.6 11.3 0.00 0.00 0.00 81 1009.4
20260506115003 17 199 0.0 8.0 0.00 0.00 0.00 80 1009.4
20260506114503 17 205 0.0 8.0 0.00 0.00 0.00 80 1009.4
20260506114218 17 202 0.0 8.0 0.00 0.00 0.00 80 1009.4
20260506113503 17 192 1.6 17.7 0.00 0.00 0.00 79 1009.1
20260506113218 17 191 1.6 17.7 0.00 0.00 0.00 78 1009.0
20260506112503 17 195 1.6 17.7 0.00 0.00 0.00 77 1008.9
20260506112003 17 189 1.6 11.3 0.00 0.00 0.00 77 1008.8
20260506111717 17 183 1.6 11.3 0.00 0.00 0.00 77 1008.7